Home > Weather > Leesburg > Past weeks

Flag for U.S.A. Weather for the Past 2 Weeks in Leesburg, Virginia, U.S.A.

Now
23 °F

Clear.


Feels Like: 13 °F
Forecast: 14 / 31 °F
Wind: 9 mph from Northwest

Location: Leesburg / Godfrey

Current Time: Feb 11, 2016 at 8:55:54 PM

Latest Report: Feb 11, 2016 at 8:15 PM


Visibility: 10 mi

Pressure: 30.30 "Hg

Humidity: 50%

Dew point: 7 °F

Location of LeesburgLocation

Historic Weather in Leesburg — Graph

°F

Leesburg Temperature Yesterday

Maximum temperature yesterday: 36 °F (at 2:55 PM)
Minimum temperature yesterday: 25 °F (at 11:55 PM)
Average temperature yesterday: 31 °F

High & Low Weather Summary for the Past Weeks

 TemperatureHumidityPressure
High61 °F (Jan 31, 1:35 PM)100% (Jan 28, 12:15 AM)30.46 "Hg (Jan 28, 12:15 AM)
Low14 °F (Jan 28, 6:55 AM)39% (Jan 31, 12:35 PM)29.55 "Hg (Feb 9, 1:15 PM)
Average37 °F75%29.99 "Hg
* Reported Jan 27 7:15 PM — Feb 11 7:35 PM, Leesburg, Weather by CustomWeather, © 2016

Note: Actual official high and low records may vary slightly from our data, if they occured in-between our weather recording intervals... More about our weather records

Advertising

Leesburg Weather History for the Previous 24 Hours

 ConditionsComfort  
Time TempWeatherWind HumidityBarometerVisibility
7:35 PM
Thu, Feb 11
23 °FClear.17 mph50%30.27 "Hg10 mi
7:10 PM23 °FClear.14 mph54%30.26 "Hg10 mi
6:55 PM23 °FPassing clouds.15 mph54%30.26 "Hg10 mi
6:35 PM23 °FPassing clouds.13 mph50%30.26 "Hg10 mi
6:15 PM25 °FClear.13 mph42%30.25 "Hg10 mi
5:50 PM25 °FPassing clouds.16 mph46%30.23 "Hg10 mi
4:15 PM28 °FScattered clouds.17 mph40%30.18 "Hg10 mi
3:55 PM28 °FScattered clouds.21 mph43%30.17 "Hg10 mi
3:35 PM28 °FScattered clouds.17 mph40%30.16 "Hg10 mi
3:15 PM28 °FScattered clouds.18 mph43%30.15 "Hg10 mi
2:55 PM28 °FScattered clouds.21 mph43%30.14 "Hg10 mi
2:35 PM28 °FScattered clouds.22 mph43%30.13 "Hg10 mi
2:15 PM28 °FScattered clouds.21 mph47%30.13 "Hg10 mi
1:55 PM28 °FPartly sunny.18 mph47%30.13 "Hg10 mi
1:35 PM30 °FScattered clouds.23 mph43%30.12 "Hg10 mi
1:15 PM28 °FScattered clouds.20 mph47%30.12 "Hg10 mi
12:55 PM28 °FPartly sunny.18 mph47%30.12 "Hg10 mi
12:35 PM28 °FPartly sunny.25 mph47%30.13 "Hg10 mi
12:15 PM27 °FPartly sunny.23 mph46%30.13 "Hg10 mi
11:55 AM28 °FPartly sunny.14 mph47%30.13 "Hg10 mi
11:35 AM27 °FPartly sunny.17 mph50%30.14 "Hg10 mi
11:15 AM28 °FPartly sunny.16 mph47%30.13 "Hg10 mi
10:55 AM27 °FOvercast.22 mph50%30.14 "Hg10 mi
10:35 AM27 °FPartly sunny.20 mph50%30.14 "Hg10 mi
10:15 AM27 °FBroken clouds.21 mph46%30.14 "Hg10 mi
9:55 AM27 °FPartly sunny.24 mph50%30.13 "Hg10 mi
9:35 AM23 °FPartly sunny.25 mph54%30.13 "Hg10 mi
9:15 AM23 °FMostly cloudy.17 mph54%30.13 "Hg10 mi
8:55 AM23 °FPartly sunny.22 mph54%30.12 "Hg10 mi
8:35 AM23 °FSunny.15 mph58%30.11 "Hg10 mi
8:15 AM23 °FSunny.22 mph58%30.10 "Hg10 mi
7:55 AM21 °FSunny.14 mph63%30.10 "Hg10 mi
7:35 AM21 °FSunny.13 mph58%30.08 "Hg10 mi
7:15 AM21 °FSunny.14 mph58%30.07 "Hg10 mi
6:55 AM21 °FClear.13 mph58%30.06 "Hg10 mi
6:35 AM21 °FClear.13 mph58%30.05 "Hg10 mi
6:15 AM21 °FClear.17 mph58%30.04 "Hg10 mi
5:55 AM21 °FClear.17 mph58%30.03 "Hg10 mi
5:35 AM21 °FClear.15 mph63%30.02 "Hg10 mi
5:15 AM21 °FClear.8 mph63%30.02 "Hg10 mi
4:55 AM21 °FClear.14 mph63%30.01 "Hg10 mi
4:35 AM21 °FClear.12 mph63%30.01 "Hg10 mi
4:15 AM21 °FClear.13 mph63%30.00 "Hg10 mi
3:55 AM23 °FClear.16 mph58%29.99 "Hg10 mi
3:35 AM23 °FClear.23 mph58%29.98 "Hg10 mi
3:15 AM23 °FClear.16 mph58%29.99 "Hg10 mi
2:55 AM23 °FClear.12 mph58%29.99 "Hg10 mi
2:35 AM23 °FClear.16 mph63%29.98 "Hg10 mi
2:15 AM23 °FClear.18 mph58%29.98 "Hg10 mi
1:55 AM23 °FClear.15 mph63%29.98 "Hg10 mi
1:15 AM23 °FClear.18 mph68%29.97 "Hg10 mi
12:55 AM25 °FClear.20 mph63%29.97 "Hg10 mi
12:35 AM25 °FClear.20 mph63%29.97 "Hg10 mi
12:15 AM25 °FPassing clouds.14 mph63%29.96 "Hg10 mi
11:55 PM
Wed, Feb 10
25 °FPassing clouds.16 mph63%29.95 "Hg10 mi
11:15 PM27 °FPassing clouds.15 mph59%29.94 "Hg10 mi
10:55 PM27 °FPassing clouds.18 mph59%29.94 "Hg10 mi
10:35 PM27 °FMostly cloudy.23 mph59%29.94 "Hg10 mi
10:15 PM27 °FPassing clouds.16 mph59%29.94 "Hg10 mi
9:50 PM27 °FPassing clouds.13 mph59%29.93 "Hg10 mi
9:15 PM27 °FOvercast.14 mph64%29.93 "Hg10 mi
8:35 PM27 °FOvercast.15 mph69%29.93 "Hg10 mi
8:15 PM27 °FOvercast.20 mph69%29.92 "Hg10 mi
Weather by CustomWeather, © 2016

See weather overviewHow to use our weather pages